(°C)
29°
29°
29°
29°
29°
28°
26°
(°C)
29°
29°
29°
29°
28°
28°
27°
ЮВ
ЮВ
ЮВ
ЮВ
ЮВ
ЮВ
ЮВ
(км/ч)
11-17
10-17
10-16
10-16
9-15
8-13
7-12
(мм)
0
0
0
0
0
0
0
(%)
0
0
0
0
0
0
0

Высота солнцестояния

/ 50.2°
sun-icon
UV 7
03:44
21:20
Растущая луна (134°)
16:56
01:47

METAR для 55.6°С 37.27°В (UUWW)

Время Условия Температура/
Точка росы
Ветер Видимость Погода Облачность Давление Изменить Необработанный
VFR 29°C / 13°C 150º 10kt >10km - Clouds and Visibility OK 1021 No Significant change UUWW 211100Z 15005MPS CAVOK 29/13 Q1021 R19/000070 NOSIG
VFR 29°C / 15°C 180º variable 140º to 220º 6kt >10km - Clouds and Visibility OK 1021 No Significant change UUWW 211030Z 18003MPS 140V220 CAVOK 29/15 Q1021 R24/000070 NOSIG
VFR 28°C / 15°C 130º variable 090º to 200º 6kt >10km - Clouds and Visibility OK 1021 No Significant change UUWW 211000Z 13003MPS 090V200 CAVOK 28/15 Q1021 R24/000070 NOSIG
VFR 29°C / 15°C 120º 6kt >10km - Clouds and Visibility OK 1022 No Significant change UUWW 210930Z 12003MPS CAVOK 29/15 Q1022 R24/000070 NOSIG
VFR 28°C / 15°C 130º variable 080º to 190º 6kt >10km - Clouds and Visibility OK 1022 No Significant change UUWW 210900Z 13003MPS 080V190 CAVOK 28/15 Q1022 R24/000070 NOSIG
VFR 28°C / 15°C 160º 8kt >10km - Clouds and Visibility OK 1022 No Significant change UUWW 210830Z 16004MPS CAVOK 28/15 Q1022 R24/000070 NOSIG
VFR 27°C / 14°C 150º variable 110º to 190º 6kt >10km - Clouds and Visibility OK 1022 No Significant change UUWW 210800Z 15003MPS 110V190 CAVOK 27/14 Q1022 R24/000070 NOSIG
VFR 27°C / 15°C 150º variable 100º to 210º 4kt >10km - Clouds and Visibility OK 1022 No Significant change UUWW 210730Z 15002MPS 100V210 CAVOK 27/15 Q1022 R24/000070 NOSIG
VFR 27°C / 15°C 120º variable 090º to 160º 4kt >10km - Clouds and Visibility OK 1022 No Significant change UUWW 210700Z 12002MPS 090V160 CAVOK 27/15 Q1022 R24/000070 NOSIG
VFR 27°C / 15°C 120º variable 060º to 160º 6kt >10km - Clouds and Visibility OK 1022 No Significant change UUWW 210630Z 12003MPS 060V160 CAVOK 27/15 Q1022 R24/000070 NOSIG
VFR 26°C / 14°C variable 2kt >10km - Clouds and Visibility OK 1022 No Significant change UUWW 210600Z VRB01MPS CAVOK 26/14 Q1022 R24/000070 NOSIG
VFR 26°C / 14°C 170º 4kt >10km - Clouds and Visibility OK 1022 No Significant change UUWW 210530Z 17002MPS CAVOK 26/14 Q1022 R24/000065 NOSIG
VFR 26°C / 14°C 170º 4kt >10km - Clouds and Visibility OK 1022 No Significant change UUWW 210500Z 17002MPS CAVOK 26/14 Q1022 R24/000065 NOSIG
VFR 24°C / 15°C 160º 2kt >10km - Clouds and Visibility OK 1022 No Significant change UUWW 210430Z 16001MPS CAVOK 24/15 Q1022 R24/000065 NOSIG
VFR 23°C / 16°C 180º 2kt >10km - Clouds and Visibility OK 1022 No Significant change UUWW 210400Z 18001MPS CAVOK 23/16 Q1022 R24/000065 NOSIG
VFR 22°C / 16°C variable 2kt >10km - Clouds and Visibility OK 1022 No Significant change UUWW 210330Z VRB01MPS CAVOK 22/16 Q1022 R24/000065 NOSIG
VFR 21°C / 16°C 190º 2kt >10km - Clouds and Visibility OK 1021 No Significant change UUWW 210300Z 19001MPS CAVOK 21/16 Q1021 R24/000065 NOSIG
VFR 20°C / 16°C 130º 2kt >10km - Clouds and Visibility OK 1021 No Significant change UUWW 210230Z 13001MPS CAVOK 20/16 Q1021 R24/000065 NOSIG
VFR 19°C / 15°C variable 0kt >10km - Clouds and Visibility OK 1021 No Significant change UUWW 210200Z 00000MPS CAVOK 19/15 Q1021 R24/000065 NOSIG
VFR 18°C / 15°C 110º 2kt >10km - Clouds and Visibility OK 1021 No Significant change UUWW 210130Z 11001MPS CAVOK 18/15 Q1021 R24/000065 NOSIG
VFR 18°C / 15°C variable 2kt >10km - Clouds and Visibility OK 1021 No Significant change UUWW 210100Z VRB01MPS CAVOK 18/15 Q1021 R24/000065 NOSIG
VFR 19°C / 15°C variable 2kt >10km - Clouds and Visibility OK 1021 No Significant change UUWW 210030Z VRB01MPS CAVOK 19/15 Q1021 R24/000065 NOSIG
VFR 20°C / 15°C 200º 2kt >10km - Clouds and Visibility OK 1021 No Significant change UUWW 210000Z 20001MPS CAVOK 20/15 Q1021 R24/000065 NOSIG
VFR 20°C / 15°C 220º 2kt >10km - Clouds and Visibility OK 1021 No Significant change UUWW 202330Z 22001MPS CAVOK 20/15 Q1021 R24/000065 NOSIG

VFR

29°C / 13°C

[Больше]
Ветер 150º 10kt
Видимость >10km
Погода -
Облачность Clouds and Visibility OK
Давление 1021
Изменить No Significant change
Необработанный UUWW 211100Z 15005MPS CAVOK 29/13 Q1021 R19/000070 NOSIG

VFR

29°C / 15°C

[Больше]
Ветер 180º variable 140º to 220º 6kt
Видимость >10km
Погода -
Облачность Clouds and Visibility OK
Давление 1021
Изменить No Significant change
Необработанный UUWW 211030Z 18003MPS 140V220 CAVOK 29/15 Q1021 R24/000070 NOSIG

VFR

28°C / 15°C

[Больше]
Ветер 130º variable 090º to 200º 6kt
Видимость >10km
Погода -
Облачность Clouds and Visibility OK
Давление 1021
Изменить No Significant change
Необработанный UUWW 211000Z 13003MPS 090V200 CAVOK 28/15 Q1021 R24/000070 NOSIG

VFR

29°C / 15°C

[Больше]
Ветер 120º 6kt
Видимость >10km
Погода -
Облачность Clouds and Visibility OK
Давление 1022
Изменить No Significant change
Необработанный UUWW 210930Z 12003MPS CAVOK 29/15 Q1022 R24/000070 NOSIG

VFR

28°C / 15°C

[Больше]
Ветер 130º variable 080º to 190º 6kt
Видимость >10km
Погода -
Облачность Clouds and Visibility OK
Давление 1022
Изменить No Significant change
Необработанный UUWW 210900Z 13003MPS 080V190 CAVOK 28/15 Q1022 R24/000070 NOSIG

VFR

28°C / 15°C

[Больше]
Ветер 160º 8kt
Видимость >10km
Погода -
Облачность Clouds and Visibility OK
Давление 1022
Изменить No Significant change
Необработанный UUWW 210830Z 16004MPS CAVOK 28/15 Q1022 R24/000070 NOSIG

VFR

27°C / 14°C

[Больше]
Ветер 150º variable 110º to 190º 6kt
Видимость >10km
Погода -
Облачность Clouds and Visibility OK
Давление 1022
Изменить No Significant change
Необработанный UUWW 210800Z 15003MPS 110V190 CAVOK 27/14 Q1022 R24/000070 NOSIG

VFR

27°C / 15°C

[Больше]
Ветер 150º variable 100º to 210º 4kt
Видимость >10km
Погода -
Облачность Clouds and Visibility OK
Давление 1022
Изменить No Significant change
Необработанный UUWW 210730Z 15002MPS 100V210 CAVOK 27/15 Q1022 R24/000070 NOSIG

VFR

27°C / 15°C

[Больше]
Ветер 120º variable 090º to 160º 4kt
Видимость >10km
Погода -
Облачность Clouds and Visibility OK
Давление 1022
Изменить No Significant change
Необработанный UUWW 210700Z 12002MPS 090V160 CAVOK 27/15 Q1022 R24/000070 NOSIG

VFR

27°C / 15°C

[Больше]
Ветер 120º variable 060º to 160º 6kt
Видимость >10km
Погода -
Облачность Clouds and Visibility OK
Давление 1022
Изменить No Significant change
Необработанный UUWW 210630Z 12003MPS 060V160 CAVOK 27/15 Q1022 R24/000070 NOSIG

VFR

26°C / 14°C

[Больше]
Ветер variable 2kt
Видимость >10km
Погода -
Облачность Clouds and Visibility OK
Давление 1022
Изменить No Significant change
Необработанный UUWW 210600Z VRB01MPS CAVOK 26/14 Q1022 R24/000070 NOSIG

VFR

26°C / 14°C

[Больше]
Ветер 170º 4kt
Видимость >10km
Погода -
Облачность Clouds and Visibility OK
Давление 1022
Изменить No Significant change
Необработанный UUWW 210530Z 17002MPS CAVOK 26/14 Q1022 R24/000065 NOSIG

VFR

26°C / 14°C

[Больше]
Ветер 170º 4kt
Видимость >10km
Погода -
Облачность Clouds and Visibility OK
Давление 1022
Изменить No Significant change
Необработанный UUWW 210500Z 17002MPS CAVOK 26/14 Q1022 R24/000065 NOSIG

VFR

24°C / 15°C

[Больше]
Ветер 160º 2kt
Видимость >10km
Погода -
Облачность Clouds and Visibility OK
Давление 1022
Изменить No Significant change
Необработанный UUWW 210430Z 16001MPS CAVOK 24/15 Q1022 R24/000065 NOSIG

VFR

23°C / 16°C

[Больше]
Ветер 180º 2kt
Видимость >10km
Погода -
Облачность Clouds and Visibility OK
Давление 1022
Изменить No Significant change
Необработанный UUWW 210400Z 18001MPS CAVOK 23/16 Q1022 R24/000065 NOSIG

VFR

22°C / 16°C

[Больше]
Ветер variable 2kt
Видимость >10km
Погода -
Облачность Clouds and Visibility OK
Давление 1022
Изменить No Significant change
Необработанный UUWW 210330Z VRB01MPS CAVOK 22/16 Q1022 R24/000065 NOSIG

VFR

21°C / 16°C

[Больше]
Ветер 190º 2kt
Видимость >10km
Погода -
Облачность Clouds and Visibility OK
Давление 1021
Изменить No Significant change
Необработанный UUWW 210300Z 19001MPS CAVOK 21/16 Q1021 R24/000065 NOSIG

VFR

20°C / 16°C

[Больше]
Ветер 130º 2kt
Видимость >10km
Погода -
Облачность Clouds and Visibility OK
Давление 1021
Изменить No Significant change
Необработанный UUWW 210230Z 13001MPS CAVOK 20/16 Q1021 R24/000065 NOSIG

VFR

19°C / 15°C

[Больше]
Ветер variable 0kt
Видимость >10km
Погода -
Облачность Clouds and Visibility OK
Давление 1021
Изменить No Significant change
Необработанный UUWW 210200Z 00000MPS CAVOK 19/15 Q1021 R24/000065 NOSIG

VFR

18°C / 15°C

[Больше]
Ветер 110º 2kt
Видимость >10km
Погода -
Облачность Clouds and Visibility OK
Давление 1021
Изменить No Significant change
Необработанный UUWW 210130Z 11001MPS CAVOK 18/15 Q1021 R24/000065 NOSIG

VFR

18°C / 15°C

[Больше]
Ветер variable 2kt
Видимость >10km
Погода -
Облачность Clouds and Visibility OK
Давление 1021
Изменить No Significant change
Необработанный UUWW 210100Z VRB01MPS CAVOK 18/15 Q1021 R24/000065 NOSIG

VFR

19°C / 15°C

[Больше]
Ветер variable 2kt
Видимость >10km
Погода -
Облачность Clouds and Visibility OK
Давление 1021
Изменить No Significant change
Необработанный UUWW 210030Z VRB01MPS CAVOK 19/15 Q1021 R24/000065 NOSIG

VFR

20°C / 15°C

[Больше]
Ветер 200º 2kt
Видимость >10km
Погода -
Облачность Clouds and Visibility OK
Давление 1021
Изменить No Significant change
Необработанный UUWW 210000Z 20001MPS CAVOK 20/15 Q1021 R24/000065 NOSIG

VFR

20°C / 15°C

[Больше]
Ветер 220º 2kt
Видимость >10km
Погода -
Облачность Clouds and Visibility OK
Давление 1021
Изменить No Significant change
Необработанный UUWW 202330Z 22001MPS CAVOK 20/15 Q1021 R24/000065 NOSIG

TAF для 55.6°С 37.27°В (UUWW)

From till


Maximum Temperature 34ºC on . Minimum Temperature 19ºC on .
From till Wind 140º 6kt. Gust 16kt. Visibility 10km or more. Nil Significant Cloud.

Необработанный: TAF UUWW 211054Z 2112/2212 14003G08MPS CAVOK TX34/2212Z TN19/2201Z

Текущие спутниковые изображения и снимки дождя для 55.6°С 37.27°В

Указатель местности находится на 55.6°С 37.27°В. [Больше]

Спутниковое изображение в реальном времени сочетает в себе видимый свет в дневное время с инфракрасным излучением в ночное время. Ночью изображение получается не темным, так как инфракрасное излучение может обнаружить разницу температур. К сожалению, низкие облака и туман трудно отличить от температуры у поверхности земли и поэтому могут быть почти незаметны ночью. Спутниковые снимки Meteosat для Европы обновляются каждые 5 минут в режиме реального времени.Снимки GOES-16/GOES-17 (Северная и Южная Америка) и Химавари (Азия) обновляются каждые 10 минут.

Копирайт 2021 EUMETSAT / meteoblue. / Копирайт 2021 meteoblue

Радарный и сверхкраткосрочный прогноз осадков для 55.6°С 37.27°В

Индикатор местности находится на 55.6°С 37.27°В. Анимация показывает радар осадков за последний час, а также прогноз погоды для1h. Умеренная морось или легкий снег могут быть незаметны для радара. Интенсивность осадковмаркированна цветной кодировкой, начиная со светло-синего и заканчивая темно-пурпурным.